GW3601 Weather Reports


time (UTC)temp
F
wind
direction
speed
knots
gust
knots
rain 1hr
in
rain 24hr
in
rain mn
in
humidity
%
barometer
mb
20260906232636 79 45 0.0 2.6 0.00 0.00 0.00 28 1028.8
20260906231637 79 45 0.9 1.7 0.00 0.00 0.00 30 1029.0
20260906230736 77 45 0.9 1.7 0.00 0.00 0.00 30 1029.1
20260906225737 77 45 0.0 0.9 0.00 0.00 0.00 30 1029.2
20260906224737 78 45 0.0 1.7 0.00 0.00 0.00 30 1029.1
20260906223738 78 45 0.9 1.7 0.00 0.00 0.00 29 1029.2
20260906222836 78 45 0.0 0.9 0.00 0.00 0.00 29 1029.3
20260906221840 79 45 0.9 2.6 0.00 0.00 0.00 29 1029.5
20260906220838 79 45 0.0 0.9 0.00 0.00 0.00 28 1029.4
20260906215839 80 45 0.9 1.7 0.00 0.00 0.00 29 1029.5
20260906214836 80 45 0.9 2.6 0.00 0.00 0.00 28 1029.7
20260906213838 79 45 0.9 1.7 0.00 0.00 0.00 28 1029.5
20260906212836 79 22 0.9 2.6 0.00 0.00 0.00 27 1029.3
20260906210838 80 22 0.9 1.7 0.00 0.00 0.00 27 1029.5
20260906204839 81 360 2.6 4.3 0.00 0.00 0.00 26 1029.6
20260906203937 82 45 0.0 0.0 0.00 0.00 0.00 26 1029.7
20260906202953 82 45 0.0 0.0 0.00 0.00 0.00 27 1029.9
20260906200937 80 45 0.0 0.9 0.00 0.00 0.00 28 1030.1
20260906195938 80 45 1.7 3.5 0.00 0.00 0.00 28 1030.2
20260906194937 80 45 0.9 2.6 0.00 0.00 0.00 27 1030.2
20260906193937 80 45 0.0 0.9 0.00 0.00 0.00 28 1030.3
20260906192936 81 45 0.0 1.7 0.00 0.00 0.00 27 1030.6
20260906191939 81 45 0.0 0.9 0.00 0.00 0.00 28 1030.6
20260906185938 78 45 0.0 3.5 0.00 0.00 0.00 30 1030.8
20260906184937 77 45 0.0 0.9 0.00 0.00 0.00 28 1031.1
20260906184037 79 45 0.0 0.0 0.00 0.00 0.00 27 1031.0
20260906183040 79 45 0.0 0.9 0.00 0.00 0.00 26 1031.0
20260906181041 78 45 0.0 1.7 0.00 0.00 0.00 27 1031.5
20260906180037 78 45 0.0 0.9 0.00 0.00 0.00 28 1031.6
20260906175038 78 45 0.0 0.9 0.00 0.00 0.00 26 1031.7
20260906174038 80 45 0.0 2.6 0.00 0.00 0.00 25 1031.9
20260906173038 79 45 0.9 1.7 0.00 0.00 0.00 24 1031.9
20260906172038 78 45 0.0 0.9 0.00 0.00 0.00 26 1031.8
20260906171039 77 45 0.0 1.7 0.00 0.00 0.00 27 1032.0
20260906165137 78 67 0.9 1.7 0.00 0.00 0.00 24 1032.1
20260906164236 77 67 0.0 0.9 0.00 0.00 0.00 26 1032.1
20260906163238 77 67 0.0 0.9 0.00 0.00 0.00 26 1032.1
20260906162337 76 67 0.0 0.9 0.00 0.00 0.00 26 1032.2
20260906160438 76 67 0.0 0.0 0.00 0.00 0.00 26 1032.0
20260906155439 75 67 0.0 0.0 0.00 0.00 0.00 28 1032.0
20260906154538 73 67 0.0 0.9 0.00 0.00 0.00 32 1032.2
20260906153538 70 67 0.0 0.0 0.00 0.00 0.00 37 1032.2
20260906151637 66 67 0.0 0.0 0.00 0.00 0.00 42 1032.4
20260906150638 65 67 0.0 0.0 0.00 0.00 0.00 43 1032.3
20260906145639 64 67 0.0 0.0 0.00 0.00 0.00 42 1032.3
20260906144737 63 67 0.0 0.0 0.00 0.00 0.00 44 1032.2
20260906143753 61 67 0.0 0.9 0.00 0.00 0.00 47 1032.3
20260906142738 59 67 0.0 0.0 0.00 0.00 0.00 51 1032.2
20260906141739 57 67 0.0 0.0 0.00 0.00 0.00 55 1032.3
20260906140837 54 67 0.0 0.0 0.00 0.00 0.00 55 1032.4
20260906135936 53 67 0.0 0.0 0.00 0.00 0.00 56 1032.4
20260906134940 51 67 0.0 0.0 0.00 0.00 0.00 59 1032.1
20260906133939 48 67 0.0 0.0 0.00 0.00 0.00 61 1032.0
20260906133036 47 67 0.0 0.0 0.00 0.00 0.00 61 1031.9
20260906132038 47 67 0.0 0.0 0.00 0.00 0.00 62 1031.7
20260906131038 46 67 0.0 0.9 0.00 0.00 0.00 61 1031.7
20260906130038 47 67 0.0 0.0 0.00 0.00 0.00 59 1031.4
20260906125137 47 67 0.0 0.0 0.00 0.00 0.00 57 1031.4
20260906124139 48 67 0.0 0.0 0.00 0.00 0.00 56 1031.4
20260906123139 48 67 0.0 0.0 0.00 0.00 0.00 57 1031.4
20260906122136 47 67 0.0 0.9 0.00 0.00 0.00 56 1031.3
20260906121139 47 67 0.0 0.0 0.00 0.00 0.00 57 1031.1
20260906120237 47 67 0.0 0.0 0.00 0.00 0.00 56 1031.2
20260906115236 48 67 0.0 0.0 0.00 0.00 0.00 56 1031.1
20260906114237 48 67 0.0 0.0 0.00 0.00 0.00 55 1031.2
20260906112336 49 67 0.0 0.0 0.00 0.00 0.00 54 1031.2
20260906111340 49 67 0.0 0.9 0.00 0.00 0.00 54 1031.2
20260906105437 49 67 0.9 1.7 0.00 0.00 0.00 52 1031.1
20260906104536 49 67 0.0 0.0 0.00 0.00 0.00 52 1030.9
20260906103539 50 67 0.0 0.0 0.00 0.00 0.00 50 1030.9
20260906102636 50 67 0.0 0.0 0.00 0.00 0.00 51 1030.8
20260906101638 50 67 0.0 0.0 0.00 0.00 0.00 51 1030.8
20260906100639 50 67 0.9 0.9 0.00 0.00 0.00 52 1031.0
20260906095737 49 67 0.0 0.0 0.00 0.00 0.00 53 1030.8
20260906094836 49 67 0.9 0.9 0.00 0.00 0.00 53 1030.9
20260906093838 48 67 0.9 0.9 0.00 0.00 0.00 54 1030.8
20260906092936 49 67 0.0 0.0 0.00 0.00 0.00 53 1030.8
20260906090953 49 67 0.9 1.7 0.00 0.00 0.00 53 1030.9
20260906085036 49 67 0.0 1.7 0.00 0.00 0.00 52 1030.9
20260906083039 50 67 0.0 0.0 0.00 0.00 0.00 51 1031.1
20260906082037 51 67 0.0 0.0 0.00 0.00 0.00 51 1031.1
20260906081036 51 67 0.9 1.7 0.00 0.00 0.00 49 1031.2
20260906080038 51 67 0.9 1.7 0.00 0.00 0.00 51 1031.3
20260906075038 51 67 0.0 0.9 0.00 0.00 0.00 51 1031.3
20260906073037 52 67 0.0 0.9 0.00 0.00 0.00 49 1031.3
20260906072038 52 67 0.0 0.0 0.00 0.00 0.00 50 1031.3
20260906071037 52 67 0.9 1.7 0.00 0.00 0.00 50 1031.3
20260906070039 52 67 0.0 0.0 0.00 0.00 0.00 48 1031.4
20260906065036 54 67 0.0 0.0 0.00 0.00 0.00 46 1031.3
20260906063038 55 67 0.0 0.9 0.00 0.00 0.00 45 1031.4
20260906062037 55 67 0.0 0.0 0.00 0.00 0.00 45 1031.4
20260906060137 56 67 0.0 0.0 0.00 0.00 0.00 45 1031.5
20260906055226 56 67 0.9 0.9 0.00 0.00 0.00 45 1031.7
20260906054226 56 67 0.0 0.9 0.00 0.00 0.00 44 1031.8
20260906053226 56 67 0.0 0.0 0.00 0.00 0.00 44 1031.8
20260906052226 57 67 0.0 0.0 0.00 0.00 0.00 44 1031.7
20260906051325 57 67 0.0 0.0 0.00 0.00 0.00 43 1031.8
20260906045326 58 67 0.9 0.9 0.00 0.00 0.00 42 1031.8
20260906044327 58 67 0.9 1.7 0.00 0.00 0.00 42 1031.8
20260906043426 59 67 0.0 0.0 0.00 0.00 0.00 42 1031.8
20260906042425 60 67 0.0 1.7 0.00 0.00 0.00 40 1031.9
20260906041425 60 67 0.0 1.7 0.00 0.00 0.00 41 1032.0
20260906040427 60 67 0.9 0.9 0.00 0.00 0.00 40 1031.9
20260906035526 60 67 1.7 2.6 0.00 0.00 0.00 41 1031.8
20260906034527 61 67 0.0 0.0 0.00 0.00 0.00 40 1031.8
20260906033527 62 67 0.0 0.0 0.00 0.00 0.00 39 1031.8
20260906032526 63 67 0.0 1.7 0.00 0.00 0.00 38 1031.7
20260906030627 64 67 0.0 0.9 0.00 0.00 0.00 35 1031.4
20260906025626 65 67 0.0 0.9 0.00 0.00 0.00 35 1031.4
20260906024626 66 67 0.0 0.0 0.00 0.00 0.00 34 1031.3
20260906023628 66 67 0.0 0.9 0.00 0.00 0.00 34 1031.2
20260906022626 67 67 0.0 0.9 0.00 0.00 0.00 34 1030.8
20260906021627 67 67 0.0 0.0 0.00 0.00 0.00 34 1030.6
20260906020626 68 67 0.0 0.0 0.00 0.00 0.00 32 1030.6
20260906015624 69 67 0.0 0.0 0.00 0.00 0.00 33 1030.4
20260906014626 70 67 0.0 0.9 0.00 0.00 0.00 32 1030.5
20260906013627 70 67 0.0 0.0 0.00 0.00 0.00 32 1030.6
20260906012626 71 67 0.0 0.9 0.00 0.00 0.00 31 1030.5
20260906011625 72 67 0.0 0.9 0.00 0.00 0.00 30 1030.4
20260906010627 74 67 0.0 0.0 0.00 0.00 0.00 30 1030.3
20260906005624 74 67 0.9 1.7 0.00 0.00 0.00 29 1030.4
20260906004626 76 67 1.7 2.6 0.00 0.00 0.00 28 1030.4
20260906003724 77 67 0.9 1.7 0.00 0.00 0.00 28 1030.4
20260906002725 77 67 1.7 2.6 0.00 0.00 0.00 27 1030.3
20260906001726 77 67 1.7 2.6 0.00 0.00 0.00 28 1030.2
20260906000726 76 67 1.7 4.3 0.00 0.00 0.00 27 1030.2
20260905235727 78 67 1.7 2.6 0.00 0.00 0.00 27 1030.1
20260905234727 78 67 1.7 2.6 0.00 0.00 0.00 28 1030.1
20260905233825 77 67 0.9 2.6 0.00 0.00 0.00 28 1030.1
20260905232827 77 67 0.9 1.7 0.00 0.00 0.00 28 1030.2